Indianapolis, IN

10:28 AM EDT on October 15, 2019 (GMT -0400)
Indianapolis International

Weather History for KIND - September, 2019

Change the Weather History Date:

Tuesday, September 17, 2019

  Actual Average Record
Temperature  
Mean Temperature 75 °F 66 °F  
Max Temperature 83 °F 77 °F 93 °F (1955)
Min Temperature 66 °F 56 °F 40 °F (1984)
Degree Days  
Heating Degree Days 0 2  
Month to date heating degree days 0 17  
Since 1 July heating degree days 0 21  
Cooling Degree Days 10 4  
Month to date cooling degree days 150 96  
Year to date cooling degree days 1189 1017  
Growing Degree Days 24 (Base 50)    
Moisture  
Dew Point 63 °F    
Average Humidity 74    
Maximum Humidity 93    
Minimum Humidity 54    
Precipitation  
Precipitation 0.00 in 0.10 in 1.09 in (2016)
Month to date precipitation 0.01 1.75  
Year to date precipitation 36.56 31.08  
Snow  
Snow 0.00 in 0.00 in 0.00 in ()
Month to date snowfall 0.0 0.0  
Since 1 July snowfall 0.0 0.0  
Since 1 September snowfall 0.0 0.0  
Snow Depth 0.00 in    
Sea Level Pressure  
Sea Level Pressure 30.10 in    
Wind  
Wind Speed 9 mph (NE)    
Max Wind Speed 14 mph    
Max Gust Speed 18 mph    
Visibility 10 miles    
Events      
T = Trace of Precipitation, MM = Missing Value Source: NWS Daily Summary

Daily Weather History Graph

Daily Weather History Graph

Search for Another Location

Airport or City:

Astronomy

Sep. 17, 2019 Rise Set
Actual Time 7:27 AM EDT 7:50 PM EDT
Civil Twilight 7:00 AM EDT 8:17 PM EDT
Nautical Twilight 6:29 AM EDT 8:49 PM EDT
Astronomical Twilight 5:56 AM EDT 9:21 PM EDT
Moon 9:54 PM EDT (9/17) 10:31 AM EDT (9/17)
Length of Visible Light 13h 16m
Length of Day
12h 22m
Waning Gibbous, 89% of the Moon is Illuminated
Sep 17
Waning Gibbous
Sep 21
Last Quarter
Sep 28
New
Oct 5
First Quarter
Oct 13
Full

Hourly Weather History & Observations

Time (EDT) Temp. Heat Index Dew Point Humidity Pressure Visibility Wind Dir Wind Speed Gust Speed Precip Events Conditions
1:54 AM 71.1 °F - 64.9 °F 81% 30.07 in 10.0 mi NE 10.4 mph - N/A   Clear
2:54 AM 71.1 °F - 64.9 °F 81% 30.06 in 10.0 mi ENE 9.2 mph - N/A   Clear
3:54 AM 71.1 °F - 64.0 °F 78% 30.07 in 10.0 mi ENE 6.9 mph - N/A   Partly Cloudy
4:54 AM 68.0 °F - 64.0 °F 87% 30.07 in 10.0 mi NE 8.1 mph - N/A   Clear
5:54 AM 66.9 °F - 64.0 °F 90% 30.09 in 10.0 mi NNE 8.1 mph - N/A   Clear
6:54 AM 66.0 °F - 64.0 °F 93% 30.11 in 8.0 mi NNE 8.1 mph - N/A   Partly Cloudy
7:54 AM 66.0 °F - 64.0 °F 93% 30.12 in 6.0 mi NE 8.1 mph - N/A   Partly Cloudy
8:54 AM 68.0 °F - 64.0 °F 87% 30.13 in 8.0 mi ENE 6.9 mph - N/A   Scattered Clouds
9:54 AM 73.0 °F - 62.1 °F 68% 30.13 in 10.0 mi East 12.7 mph - N/A   Mostly Cloudy
10:54 AM 73.9 °F - 62.1 °F 66% 30.14 in 10.0 mi East 10.4 mph - N/A   Mostly Cloudy
11:54 AM 75.9 °F - 62.1 °F 62% 30.15 in 10.0 mi East 12.7 mph - N/A   Mostly Cloudy
12:54 PM 78.1 °F - 63.0 °F 60% 30.13 in 10.0 mi East 10.4 mph - N/A   Mostly Cloudy
1:54 PM 80.1 °F 81.2 °F 62.1 °F 54% 30.12 in 10.0 mi ENE 9.2 mph - N/A   Mostly Cloudy
2:54 PM 80.1 °F 81.2 °F 62.1 °F 54% 30.10 in 10.0 mi NE 9.2 mph - N/A   Mostly Cloudy
3:54 PM 81.0 °F 81.9 °F 62.1 °F 52% 30.09 in 10.0 mi NE 9.2 mph - N/A   Mostly Cloudy
4:54 PM 81.0 °F 82.2 °F 63.0 °F 54% 30.07 in 10.0 mi NE 10.4 mph - N/A   Mostly Cloudy
5:54 PM 80.1 °F 81.2 °F 62.1 °F 54% 30.07 in 10.0 mi ENE 10.4 mph - N/A   Scattered Clouds
6:54 PM 79.0 °F - 61.0 °F 54% 30.07 in 10.0 mi East 8.1 mph - N/A   Scattered Clouds
7:54 PM 75.0 °F - 62.1 °F 64% 30.07 in 10.0 mi NE 9.2 mph - N/A   Scattered Clouds
8:54 PM 73.0 °F - 62.1 °F 68% 30.08 in 10.0 mi NNE 9.2 mph - N/A   Scattered Clouds
9:54 PM 72.0 °F - 61.0 °F 68% 30.08 in 10.0 mi NE 8.1 mph - N/A   Mostly Cloudy
10:54 PM 71.1 °F - 61.0 °F 70% 30.09 in 10.0 mi NE 10.4 mph - N/A   Mostly Cloudy
11:54 PM 71.1 °F - 61.0 °F 70% 30.09 in 10.0 mi ENE 11.5 mph - N/A   Mostly Cloudy